Total_Precipitation_Accumulation
0.38 0.40 0.40 0.39 0.39 0.42 0.47 0.57 0.70 0.72 0.60 0.51 0.52 0.55 0.56 0.56 0.59 0.53 0.48 0.57 0.60 0.60 0.63 0.66 0.67 0.64 0.61 0.61 0.64 0.69 0.74 0.79 0.83 0.90 0.94 0.99 1.16 1.42
0.32 0.34 0.36 0.37 0.39 0.43 0.49 0.57 0.67 0.81 0.81 0.66 0.60 0.61 0.62 0.59 0.60 0.50 0.44 0.52 0.50 0.50 0.52 0.53 0.51 0.50 0.50 0.52 0.54 0.58 0.59 0.62 0.67 0.78 0.90 0.99 1.09 1.22
0.28 0.30 0.33 0.35 0.40 0.44 0.50 0.58 0.67 0.77 0.83 0.75 0.65 0.60 0.57 0.52 0.47 0.38 0.32 0.30 0.29 0.37 0.37 0.36 0.37 0.38 0.38 0.39 0.44 0.49 0.52 0.55 0.61 0.70 0.80 0.91 1.00 1.06
0.26 0.28 0.32 0.36 0.44 0.50 0.55 0.60 0.63 0.64 0.65 0.61 0.52 0.45 0.41 0.35 0.29 0.23 0.19 0.16 0.15 0.22 0.23 0.22 0.23 0.24 0.25 0.27 0.31 0.39 0.45 0.51 0.55 0.58 0.61 0.64 0.72 0.84
0.26 0.30 0.34 0.38 0.42 0.44 0.45 0.45 0.44 0.41 0.40 0.39 0.34 0.29 0.25 0.21 0.18 0.14 0.10 0.08 0.07 0.09 0.10 0.10 0.12 0.16 0.19 0.23 0.27 0.30 0.32 0.32 0.32 0.34 0.37 0.40 0.45 0.52
0.33 0.36 0.39 0.40 0.38 0.36 0.33 0.32 0.30 0.26 0.24 0.24 0.25 0.22 0.19 0.15 0.13 0.10 0.07 0.05 0.04 0.03 0.04 0.06 0.09 0.13 0.14 0.13 0.13 0.12 0.12 0.13 0.16 0.21 0.27 0.30 0.32 0.34
0.38 0.38 0.38 0.38 0.35 0.29 0.24 0.21 0.19 0.19 0.23 0.27 0.27 0.22 0.15 0.10 0.07 0.04 0.04 0.04 0.02 0.02 0.04 0.04 0.04 0.04 0.03 0.03 0.05 0.06 0.09 0.13 0.19 0.25 0.29 0.32 0.33 0.35
0.35 0.31 0.28 0.26 0.22 0.20 0.18 0.18 0.20 0.25 0.32 0.37 0.30 0.18 0.07 0.03 0.03 0.05 0.09 0.14 0.09 0.02 0.04 0.02 0.01 0.01 0.01 0.02 0.06 0.09 0.12 0.15 0.18 0.21 0.24 0.26 0.27 0.28
0.27 0.22 0.17 0.14 0.11 0.09 0.09 0.11 0.15 0.21 0.23 0.20 0.13 0.04 0.03 0.04 0.11 0.19 0.17 0.18 0.12 0.02 0.05 0.04 0.02 0.03 0.02 0.03 0.06 0.08 0.09 0.12 0.15 0.19 0.21 0.22 0.23 0.23
0.15 0.11 0.08 0.06 0.04 0.06 0.09 0.14 0.11 0.07 0.05 0.03 0.03 0.04 0.05 0.07 0.15 0.26 0.23 0.16 0.06 0.02 0.04 0.06 0.02 0.02 0.01 0.02 0.03 0.05 0.08 0.14 0.18 0.21 0.21 0.21 0.22 0.22
0.04 0.03 0.03 0.02 0.03 0.11 0.17 0.17 0.08 0.02 0.00 0.02 0.06 0.06 0.06 0.05 0.06 0.15 0.21 0.23 0.14 0.02 0.02 0.04 0.03 0.02 0.02 0.01 0.01 0.03 0.06 0.08 0.09 0.10 0.11 0.13 0.15 0.19
0.00 0.01 0.01 0.03 0.08 0.16 0.16 0.13 0.05 0.02 0.04 0.03 0.01 0.00 0.00 0.00 0.02 0.09 0.27 0.49 0.36 0.17 0.01 0.08 0.12 0.15 0.23 0.03 0.01 0.01 0.02 0.04 0.06 0.08 0.09 0.10 0.12 0.15
0.02 0.01 0.01 0.06 0.13 0.15 0.10 0.03 0.03 0.08 0.06 0.01 0.00 0.00 0.00 0.01 0.01 0.02 0.13 0.49 0.69 0.40 0.06 0.34 0.47 0.23 0.33 0.14 0.01 0.00 0.02 0.09 0.16 0.18 0.21 0.23 0.26 0.33
0.03 0.02 0.04 0.10 0.11 0.06 0.02 0.02 0.05 0.05 0.01 0.00 0.01 0.01 0.01 0.02 0.02 0.02 0.03 0.11 0.31 0.43 0.23 0.49 0.84 0.49 0.51 0.32 0.06 0.01 0.02 0.13 0.32 0.37 0.38 0.44 0.50 0.52
0.04 0.07 0.08 0.06 0.03 0.00 0.00 0.02 0.02 0.00 0.01 0.04 0.04 0.03 0.02 0.02 0.03 0.04 0.03 0.03 0.04 0.06 0.12 0.25 0.55 0.55 0.60 0.50 0.23 0.07 0.09 0.13 0.27 0.40 0.49 0.60 0.70 0.71
0.06 0.07 0.05 0.01 0.00 0.00 0.00 0.00 0.00 0.00 0.04 0.08 0.07 0.04 0.03 0.03 0.05 0.08 0.13 0.12 0.13 0.05 0.03 0.09 0.22 0.43 0.49 0.30 0.33 0.26 0.23 0.31 0.32 0.43 0.58 0.66 0.77 0.91
0.09 0.04 0.02 0.01 0.01 0.01 0.01 0.00 0.00 0.01 0.03 0.05 0.10 0.10 0.07 0.06 0.05 0.08 0.17 0.23 0.27 0.17 0.09 0.05 0.06 0.12 0.24 0.33 0.35 0.25 0.26 0.37 0.50 0.59 0.71 0.70 0.69 0.89
0.06 0.02 0.02 0.02 0.02 0.02 0.02 0.02 0.01 0.02 0.06 0.11 0.13 0.15 0.16 0.15 0.12 0.09 0.15 0.26 0.27 0.19 0.16 0.13 0.12 0.15 0.14 0.15 0.26 0.37 0.40 0.48 0.53 0.55 0.67 0.77 0.72 0.70
0.03 0.02 0.03 0.03 0.03 0.03 0.03 0.05 0.05 0.04 0.09 0.15 0.18 0.21 0.22 0.19 0.16 0.16 0.17 0.19 0.18 0.15 0.16 0.18 0.25 0.47 0.47 0.24 0.14 0.35 0.63 0.68 0.56 0.54 0.64 0.82 0.95 0.81
0.04 0.03 0.04 0.03 0.04 0.05 0.07 0.10 0.10 0.08 0.09 0.13 0.16 0.19 0.23 0.24 0.21 0.18 0.18 0.22 0.24 0.19 0.14 0.11 0.18 0.50 0.82 0.68 0.47 0.40 0.49 0.70 0.83 0.89 0.79 0.70 0.77 0.72
0.04 0.04 0.04 0.05 0.07 0.09 0.12 0.14 0.15 0.15 0.16 0.19 0.19 0.19 0.24 0.30 0.24 0.17 0.18 0.17 0.21 0.22 0.21 0.13 0.10 0.21 0.46 0.61 0.48 0.33 0.40 0.48 0.74 1.13 1.09 0.86 0.70 0.58
0.06 0.06 0.05 0.06 0.11 0.16 0.18 0.18 0.18 0.15 0.17 0.20 0.20 0.21 0.25 0.31 0.31 0.25 0.23 0.25 0.23 0.24 0.22 0.12 0.06 0.10 0.28 0.51 0.42 0.26 0.25 0.25 0.25 0.35 0.75 1.26 1.63 1.63
0.09 0.09 0.09 0.11 0.16 0.20 0.21 0.19 0.17 0.16 0.19 0.25 0.26 0.25 0.27 0.29 0.27 0.28 0.27 0.28 0.29 0.25 0.20 0.14 0.08 0.09 0.16 0.25 0.31 0.24 0.17 0.14 0.14 0.18 0.41 0.72 1.05 1.25